Date,TemperatureHighF,TemperatureAvgF,TemperatureLowF,DewpointHighF,DewpointAvgF,DewpointLowF,HumidityHigh,HumidityAvg,HumidityLow,PressureMaxIn,PressureMinIn,WindSpeedMaxMPH,WindSpeedAvgMPH,GustSpeedMaxMPH,PrecipitationSumIn
2013-1-1,26,0,-8,6,-14,-22,60,51,38,29.91,29.78,9,1,9,0.00
2013-1-2,14,2,-8,-2,-12,-23,59,51,38,29.97,29.88,13,2,13,0.00
2013-1-3,35,-1,-12,2,-17,-26,61,46,22,30.04,29.96,9,2,9,0.00
2013-1-4,52,10,-2,19,-5,-15,64,51,22,30.03,29.93,11,2,11,0.00
2013-1-5,41,9,-2,5,-10,-15,57,44,19,30.14,29.96,20,3,20,0.01
2013-1-6,51,17,2,11,-5,-17,47,37,18,30.12,29.95,10,2,10,0.00
2013-1-7,55,16,6,12,-6,-13,50,37,17,29.97,29.88,11,2,11,0.00
2013-1-8,42,15,6,19,-1,-13,62,49,33,30.15,29.85,14,3,14,0.00
2013-1-9,53,19,6,17,2,-4,66,50,19,30.19,30.02,10,2,10,0.00
2013-1-10,41,24,14,9,1,-4,53,37,18,30.02,29.59,10,3,10,0.00
2013-1-11,17,9,-4,8,-7,-24,70,49,21,29.61,29.40,17,4,17,0.00
2013-1-12,17,-7,-16,-15,-26,-32,51,40,21,29.63,29.56,60,2,60,0.00
2013-1-13,4,-9,-17,-21,-28,-34,49,38,20,29.66,29.59,10,2,14,0.00
2013-1-14,12,-10,-21,-15,-28,-38,49,40,22,29.73,29.62,12,2,12,0.00
2013-1-15,6,-6,-22,-8,-21,-38,62,47,40,30.01,29.72,15,4,15,0.00
2013-1-16,44,12,0,22,0,-12,71,60,39,30.19,30.01,11,2,11,0.00
2013-1-17,56,15,4,21,-1,-6,72,53,18,30.22,30.15,11,2,11,0.00
2013-1-18,51,17,4,11,-6,-10,58,39,18,30.17,30.07,17,3,17,0.01
2013-1-19,54,19,9,12,-5,-12,48,35,17,30.19,30.06,21,3,21,0.00
2013-1-20,55,20,9,11,-6,-11,45,32,17,30.13,30.06,17,3,17,0.00
2013-1-21,50,19,6,11,-6,-15,52,34,18,30.12,30.06,21,4,21,0.00
2013-1-22,57,22,11,14,-7,-18,41,27,17,30.23,30.08,19,4,58,0.00
2013-1-23,62,26,13,15,1,-8,43,35,16,30.24,30.18,11,2,11,0.00
2013-1-24,49,29,21,22,9,-8,73,45,21,30.18,30.07,33,5,33,0.02
2013-1-25,39,29,22,27,22,16,83,73,54,30.16,30.06,11,2,11,0.01
2013-1-26,46,28,16,26,19,9,84,70,40,30.07,29.81,11,2,11,0.00
2013-1-27,50,26,17,23,14,2,83,63,25,29.85,29.78,16,2,16,0.09
2013-1-28,36,22,7,17,7,-5,71,54,34,29.78,29.61,22,3,22,0.00
2013-1-29,22,4,-4,0,-10,-17,61,52,24,29.70,29.54,16,4,16,0.00
2013-1-30,14,7,-3,4,-4,-16,69,59,48,29.85,29.67,24,6,24,0.01
2013-1-31,34,16,8,12,3,-4,70,57,32,30.04,29.83,17,4,17,0.00
2013-2-1,28,18,8,11,4,-2,72,55,40,30.09,29.94,27,4,27,0.01
2013-2-2,46,17,3,10,-2,-7,64,46,18,30.17,30.08,12,3,13,0.04
2013-2-3,43,19,8,4,-5,-10,52,37,18,30.13,29.91,16,3,16,0.00
2013-2-4,48,18,4,11,-4,-11,51,39,18,29.96,29.88,17,4,17,0.00
2013-2-5,49,23,8,20,8,-5,65,53,25,30.01,29.91,19,2,19,0.00
2013-2-6,36,22,13,16,10,4,74,61,32,29.96,29.85,12,3,12,0.00
2013-2-7,49,16,3,23,1,-7,72,55,20,30.02,29.94,9,2,10,0.06
2013-2-8,42,22,9,14,3,-8,74,47,21,29.95,29.70,15,4,15,0.01
2013-2-9,23,17,6,14,6,-6,75,64,53,29.71,29.51,15,3,15,0.00
2013-2-10,23,10,4,3,-5,-9,63,52,26,29.75,29.56,17,3,17,0.00
2013-2-11,26,7,-1,2,-7,-15,60,52,26,29.81,29.70,10,2,10,0.00
2013-2-12,25,2,-10,4,-14,-25,58,47,32,29.91,29.81,17,2,17,0.00
2013-2-13,26,13,0,12,0,-13,67,57,41,29.94,29.86,23,3,23,0.00
2013-2-14,27,13,7,12,2,-4,70,61,41,29.97,29.88,17,3,17,0.00
2013-2-15,22,12,7,5,-1,-4,64,57,41,30.10,29.94,19,4,19,0.01
2013-2-16,37,17,6,13,0,-8,65,50,25,30.10,29.97,23,4,23,0.02
2013-2-17,40,22,6,36,-4,-16,97,35,18,29.97,29.68,22,4,22,0.01
2013-2-18,23,8,-4,0,-9,-19,62,47,25,29.91,29.71,16,4,16,0.00
2013-2-19,40,15,-4,3,-9,-19,50,35,18,29.90,29.69,12,3,12,0.01
2013-2-20,32,19,10,11,2,-6,67,49,24,29.70,29.53,12,2,12,0.00
2013-2-21,26,16,7,11,4,-4,66,61,51,29.72,29.53,13,3,13,0.00
2013-2-22,25,9,0,6,-4,-14,60,54,44,29.78,29.71,23,2,23,0.00
2013-2-23,32,14,-2,14,2,-15,68,58,42,29.76,29.60,21,2,23,0.00
2013-2-24,21,12,6,5,0,-6,66,57,44,29.84,29.58,13,3,13,0.00
2013-2-25,34,11,2,11,-3,-11,61,53,35,29.87,29.75,15,4,15,0.00
2013-2-26,18,8,2,2,-4,-10,61,57,47,29.88,29.67,17,4,17,0.01
2013-2-27,26,5,-7,5,-12,-20,62,47,27,30.00,29.88,15,3,15,0.00
2013-2-28,25,8,-7,3,-7,-21,65,51,25,30.05,29.99,21,4,21,0.00
2013-3-1,33,20,12,16,8,2,72,61,46,30.22,30.04,18,6,18,0.00
2013-3-2,50,27,18,25,13,9,74,58,29,30.23,30.07,21,4,21,0.11
2013-3-3,43,30,20,18,12,5,74,49,29,30.08,29.79,25,5,25,0.00
2013-3-4,33,18,-4,21,8,-17,77,64,47,29.99,29.73,18,3,18,0.01
2013-3-5,49,14,-7,11,-5,-20,69,45,18,30.06,29.97,14,3,14,0.06
2013-3-6,52,27,12,12,3,-2,58,38,18,30.04,29.91,17,4,17,0.01
2013-3-7,50,31,20,31,4,-5,71,33,18,30.00,29.92,22,4,22,0.00
2013-3-8,43,28,18,18,12,3,73,52,27,29.98,29.69,17,3,17,0.01
2013-3-9,31,21,9,20,12,-2,75,68,61,29.88,29.65,21,4,21,0.00
2013-3-10,37,14,5,13,2,-5,66,57,32,30.03,29.87,23,6,23,0.02
2013-3-11,35,20,7,17,7,-3,70,57,41,30.02,29.94,24,4,24,0.00
2013-3-12,46,26,18,20,12,9,73,56,30,30.15,29.98,24,6,24,0.05
2013-3-13,51,31,23,20,13,9,62,49,28,30.25,30.13,30,5,30,0.00
2013-3-14,53,32,20,18,10,4,64,44,18,30.27,30.21,16,4,16,0.00
2013-3-15,54,35,23,19,13,8,61,43,18,30.22,30.03,20,4,20,0.00
2013-3-16,39,29,21,26,20,13,80,68,52,30.03,29.88,14,2,14,0.05
2013-3-17,35,22,15,22,12,-1,79,65,41,29.89,29.67,19,3,19,0.00
2013-3-18,27,18,11,9,5,0,65,56,39,29.89,29.77,15,3,15,0.00
2013-3-19,39,21,6,36,-5,-16,97,33,18,30.11,29.88,21,5,21,0.01
2013-3-20,43,22,4,17,3,-14,69,44,22,30.09,29.86,27,5,27,0.02
2013-3-21,34,22,13,24,13,4,76,67,54,29.86,29.69,15,3,15,0.00
2013-3-22,37,18,1,8,0,-9,69,49,19,29.78,29.63,15,3,15,0.02
2013-3-23,20,10,4,3,-3,-9,65,55,34,29.83,29.62,12,2,12,0.00
2013-3-24,17,3,-8,-4,-12,-21,56,49,32,29.86,29.77,17,2,17,0.00
2013-3-25,39,7,-9,7,-12,-24,58,43,20,29.97,29.85,18,3,18,0.00
2013-3-26,48,21,0,18,5,-14,73,51,22,29.96,29.90,21,3,21,0.04
2013-3-27,50,29,19,21,14,9,76,58,25,30.06,29.93,15,2,15,0.07
2013-3-28,52,29,16,21,13,5,65,52,22,30.12,30.03,10,2,10,0.01
2013-3-29,51,31,20,26,18,10,76,60,27,30.15,30.09,23,3,23,0.00
2013-3-30,51,32,21,23,19,13,80,63,24,30.15,30.07,19,4,19,0.05
2013-3-31,53,29,12,19,10,4,76,50,18,30.12,30.04,16,4,16,0.05
2013-4-1,53,32,22,26,17,9,79,53,23,30.07,29.94,14,3,14,0.00
2013-4-2,43,28,22,28,19,15,78,69,41,29.99,29.91,16,2,16,0.02
2013-4-3,52,29,15,29,18,7,78,63,33,30.14,29.98,17,2,17,0.24
2013-4-4,55,32,19,26,16,10,77,55,21,30.14,30.09,16,3,27,0.00
2013-4-5,52,35,25,25,17,12,83,51,21,30.10,29.91,26,4,26,0.00
2013-4-6,52,32,22,27,19,11,81,62,23,29.98,29.94,15,3,15,0.11
2013-4-7,44,30,24,25,18,11,75,60,35,29.95,29.83,21,3,21,0.00
2013-4-8,51,32,22,26,18,11,82,60,23,29.85,29.61,27,3,27,0.09
2013-4-9,30,21,7,23,10,-5,78,63,45,29.78,29.61,17,3,17,0.06
2013-4-10,36,16,4,13,0,-6,61,51,35,29.86,29.77,19,5,19,0.02
2013-4-11,40,25,10,23,13,-5,76,60,39,29.88,29.75,25,7,25,0.01
2013-4-12,50,28,19,27,14,5,79,60,25,29.95,29.84,15,2,15,0.08
2013-4-13,50,31,16,24,10,2,81,43,21,29.94,29.63,36,5,36,0.11
2013-4-14,32,23,17,23,10,-2,82,61,30,29.74,29.62,23,4,23,0.02
2013-4-15,39,25,17,28,16,10,78,71,58,29.78,29.61,17,4,17,0.00
2013-4-16,41,27,15,27,16,8,77,66,51,29.78,29.68,20,5,20,0.13
2013-4-17,29,19,7,20,10,-4,74,67,59,29.82,29.67,17,4,17,0.00
2013-4-18,22,8,-1,5,-6,-13,61,52,38,30.00,29.79,20,5,20,0.00
2013-4-19,45,21,2,17,5,-11,63,51,27,30.00,29.93,25,5,25,0.14
2013-4-20,46,27,19,24,16,9,73,62,31,30.01,29.89,13,3,13,0.01
2013-4-21,51,31,20,23,16,9,76,58,23,30.05,30.00,16,3,16,0.07
2013-4-22,48,31,18,28,19,8,76,62,38,30.00,29.89,12,1,12,0.13
2013-4-23,30,18,3,14,6,-9,67,59,48,30.00,29.84,0,0,0,0.00
2013-4-24,46,20,1,13,2,-11,65,49,21,30.12,29.96,0,0,0,0.00
2013-4-25,54,30,10,19,9,-3,65,45,19,30.09,29.99,15,2,15,0.04
2013-4-26,59,34,17,19,12,6,65,44,17,30.23,30.05,15,3,15,0.18
2013-4-27,60,36,20,20,13,7,65,43,18,30.22,30.15,19,4,19,0.01
2013-4-28,61,39,24,24,17,11,67,45,18,30.17,30.06,17,4,17,0.00
2013-4-29,62,43,27,26,18,11,78,42,17,30.09,29.91,24,5,24,0.00
2013-4-30,57,45,33,28,20,12,74,38,20,29.93,29.87,28,5,28,0.19
2013-5-1,40,26,16,28,18,8,84,73,54,30.19,29.90,15,2,15,0.05
2013-5-2,44,23,10,17,8,1,73,56,25,30.28,30.19,19,2,19,0.11
2013-5-3,58,30,9,22,11,0,73,50,18,30.24,30.06,33,2,33,0.00
2013-5-4,52,33,22,28,20,12,84,59,27,30.12,30.02,13,3,13,0.01
2013-5-5,50,36,23,28,23,17,81,62,37,30.12,30.05,15,3,15,0.06
2013-5-6,53,35,27,32,26,19,91,71,33,30.09,30.00,12,2,33,0.05
2013-5-7,54,38,30,33,27,17,92,69,27,30.06,30.00,11,2,11,0.22
2013-5-8,49,34,26,35,26,21,88,75,52,30.06,29.99,11,1,11,0.13
2013-5-9,50,34,24,31,26,19,90,75,44,30.16,30.02,13,1,13,0.28
2013-5-10,58,34,20,32,24,15,83,68,28,30.28,30.12,13,2,13,0.04
2013-5-11,59,37,24,29,22,13,83,60,21,30.30,30.25,17,3,17,0.01
2013-5-12,58,41,28,32,25,19,88,59,25,30.29,30.25,16,3,16,0.05
2013-5-13,68,45,32,34,28,20,80,57,19,30.31,30.25,11,3,11,0.01
2013-5-14,70,44,33,34,30,20,86,64,17,30.25,30.16,14,2,14,0.02
2013-5-15,58,41,32,37,32,29,91,75,40,30.17,30.09,11,2,11,0.06
2013-5-16,64,43,29,34,28,21,95,62,22,30.10,30.04,12,2,12,0.01
2013-5-17,65,45,32,28,21,12,76,46,14,30.11,30.05,12,3,12,0.00
2013-5-18,57,39,30,29,23,14,89,58,22,30.09,30.00,17,3,17,0.00
2013-5-19,48,35,29,32,26,19,91,72,43,30.02,29.96,15,3,15,0.12
2013-5-20,50,35,27,36,26,22,87,72,46,30.08,29.96,15,4,15,0.06
2013-5-21,54,36,27,30,24,19,78,62,29,30.07,30.02,15,3,15,0.00
2013-5-22,64,42,28,32,24,14,80,56,17,30.12,30.01,13,2,13,0.00
2013-5-23,66,46,34,35,28,14,82,55,19,30.12,30.07,15,4,15,0.00
2013-5-24,67,47,31,33,23,13,85,48,13,30.20,30.09,17,3,17,0.00
2013-5-25,68,48,31,27,20,11,70,40,12,30.20,30.14,29,3,29,0.00
2013-5-26,70,48,33,30,21,13,66,42,11,30.18,30.10,13,2,29,0.00
2013-5-27,66,47,33,25,18,12,61,36,15,30.14,30.04,14,3,14,0.00
2013-5-28,62,45,31,28,20,11,65,43,17,30.06,29.90,17,3,17,0.00
2013-5-29,53,38,30,33,26,18,83,63,30,29.92,29.83,15,3,15,0.05
2013-5-30,47,35,28,32,26,19,88,70,40,29.96,29.87,21,3,21,0.14
2013-6-11,78,78,77,62,61,61,58,58,57,0.00,0.00,0,0,0,0.00
2013-6-12,78,77,76,63,61,60,60,58,54,29.77,0.00,0,0,0,0.00
2013-6-13,78,78,77,63,62,60,60,58,55,29.75,29.59,0,0,0,0.01
2013-6-14,78,78,77,63,62,61,61,59,57,29.68,29.57,0,0,0,0.00
2013-6-15,78,78,77,63,62,61,61,60,57,29.70,29.59,0,0,0,0.00
2013-6-16,78,78,77,63,62,61,62,60,56,29.71,29.58,0,0,0,0.00
2013-6-17,78,77,77,64,62,61,63,60,56,29.74,29.56,0,0,0,0.00
2013-6-18,78,77,77,64,62,60,63,61,56,29.66,29.57,0,0,0,0.00
2013-6-19,78,77,77,64,62,60,64,61,56,29.71,29.62,0,0,0,0.00
2013-6-20,78,77,76,64,62,59,63,59,54,29.76,29.66,0,0,0,0.00
2013-6-21,78,78,77,63,62,60,62,59,55,29.79,29.69,0,0,0,0.00
2013-6-22,78,78,77,63,62,61,61,59,56,29.76,29.62,0,0,0,0.00
2013-6-23,78,78,77,64,62,61,62,60,56,29.72,29.61,0,0,0,0.00
2013-6-24,78,77,76,64,62,60,62,59,54,29.75,29.62,0,0,0,0.00
2013-6-29,76,69,54,47,40,-100,76,40,32,30.43,29.42,4,-31,4,0.00
2013-6-30,75,73,70,46,41,37,37,32,29,29.58,29.45,0,0,2,0.06
2013-7-1,71,63,44,43,37,29,85,41,25,29.86,29.55,9,1,15,0.07
2013-7-2,67,51,36,41,36,26,93,63,21,30.00,29.85,8,1,16,0.00
2013-7-3,69,50,35,39,34,26,90,61,21,29.94,29.77,9,1,19,0.00
2013-7-4,71,52,37,51,38,31,91,67,25,29.89,29.75,6,0,9,0.12
2013-7-5,66,54,44,49,43,39,90,69,43,29.78,29.64,4,0,9,0.01
2013-7-6,69,54,44,46,43,40,95,70,39,29.77,29.67,6,1,14,0.01
2013-7-7,73,55,42,49,42,36,93,69,29,29.85,29.72,5,0,11,0.05
2013-7-8,70,52,40,48,41,32,99,73,25,29.97,29.85,4,0,9,0.17
2013-7-9,72,55,41,48,38,32,86,59,24,30.03,29.94,6,1,13,0.00
2013-7-10,75,58,47,49,41,36,76,56,24,30.02,29.79,5,0,10,0.01
2013-7-11,76,60,46,43,38,28,77,51,20,29.83,29.61,3,0,6,0.00
2013-7-12,70,53,45,52,45,39,97,76,36,29.85,29.65,2,0,8,0.28
2013-7-13,70,53,44,54,48,43,99,84,38,29.93,29.83,4,0,8,0.13
2013-7-14,70,51,42,53,47,41,99,86,42,29.98,29.88,4,0,9,0.19
2013-7-15,68,51,43,51,47,42,97,85,48,29.97,29.80,5,0,7,0.03
2013-7-16,70,52,36,47,40,33,97,68,33,30.00,29.86,5,1,10,0.00
2013-7-17,70,53,40,50,44,37,94,72,43,30.00,29.89,6,0,12,0.00
2013-7-18,70,53,42,47,43,40,95,71,36,30.00,29.87,6,0,10,0.00
2013-7-19,68,53,45,53,45,40,92,75,42,29.96,29.82,3,0,8,0.00
2013-7-20,72,55,41,44,36,25,91,58,18,29.89,29.73,14,1,14,0.00
2013-7-21,73,58,40,44,30,17,82,43,13,29.76,29.70,6,1,13,0.00
2013-7-22,75,58,43,37,26,13,67,35,11,29.81,29.73,4,1,15,0.00
2013-7-23,75,58,43,35,24,11,50,30,12,29.88,29.78,6,1,15,0.00
2013-7-24,67,55,46,48,40,32,88,59,27,29.87,29.75,4,0,9,0.09
2013-7-25,66,50,39,47,43,37,98,78,37,30.07,29.80,5,1,12,0.24
2013-7-26,68,51,38,47,38,30,99,70,26,30.13,30.02,11,0,13,0.01
2013-7-27,69,53,41,44,39,34,94,66,31,30.02,29.72,5,1,10,0.02
2013-7-28,57,48,43,49,45,42,98,91,69,29.85,29.66,3,0,11,0.28
2013-7-29,58,47,41,49,44,40,98,88,69,30.06,29.82,5,0,12,0.14
2013-7-30,64,49,36,43,39,35,97,72,35,30.17,30.06,9,0,12,0.00
2013-7-31,69,53,39,41,38,32,90,61,26,30.19,30.00,4,0,7,0.00
2013-8-1,63,51,43,53,42,35,91,73,39,30.00,29.82,3,0,8,0.18
2013-8-2,69,54,42,45,41,35,92,65,28,29.92,29.84,5,1,13,0.00
2013-8-3,70,54,44,44,41,35,89,66,29,29.97,29.80,5,1,13,0.00
2013-8-4,71,52,40,46,41,34,95,72,28,30.00,29.91,6,1,11,0.07
2013-8-5,66,49,39,50,43,38,99,83,43,29.99,29.89,4,0,11,0.21
2013-8-6,67,48,39,47,41,35,99,80,34,29.98,29.89,5,0,10,0.02
2013-8-7,57,45,39,46,41,37,96,86,54,29.99,29.90,2,0,7,0.38
2013-8-8,55,44,36,44,38,35,97,82,53,30.07,29.94,5,0,17,0.04
2013-8-9,91,64,38,66,48,7,94,62,40,30.15,30.02,3,-162,9,0.12
2013-8-10,66,48,34,40,34,26,96,64,23,30.18,30.05,4,1,13,0.00
2013-8-11,65,49,36,44,37,30,93,68,28,30.07,29.92,7,0,10,0.00
2013-8-12,63,48,38,44,37,30,95,69,31,30.03,29.93,6,0,15,0.03
2013-8-13,62,45,35,45,38,33,98,79,34,30.17,30.02,4,1,11,0.09
2013-8-14,62,46,34,40,33,26,98,66,28,30.19,30.08,9,1,15,0.01
2013-8-15,68,51,36,32,29,23,81,49,20,30.11,29.99,8,1,13,0.00
2013-8-16,70,54,39,35,28,21,71,43,16,30.05,29.96,9,1,12,0.00
2013-8-17,70,56,43,36,30,21,65,43,17,30.01,29.85,6,1,14,0.00
2013-8-18,72,50,40,49,39,33,97,71,24,30.04,29.85,7,1,10,0.20
2013-8-19,72,53,38,46,39,32,99,67,25,30.09,29.94,4,1,10,0.01
2013-8-20,72,54,42,42,38,31,85,58,23,29.96,29.81,4,0,8,0.00
2013-8-21,71,52,41,49,41,37,91,70,30,29.96,29.85,5,1,10,0.08
2013-8-22,66,51,44,53,45,40,97,81,48,30.00,29.87,5,0,8,0.42
2013-8-23,68,52,40,52,44,36,99,78,34,29.97,29.79,4,0,8,0.04
2013-8-24,64,49,39,50,42,38,97,81,43,29.99,29.86,4,0,7,0.08
2013-8-25,62,50,40,53,46,40,98,87,58,30.03,29.95,3,0,8,0.16
2013-8-26,65,51,43,55,47,42,98,87,49,30.04,29.93,4,0,8,0.25
2013-8-27,71,52,41,52,46,36,99,81,30,30.03,29.90,3,0,8,0.01
2013-8-28,74,54,42,48,44,34,97,74,25,30.02,29.85,9,0,12,0.16
2013-8-29,70,51,41,51,45,39,99,82,35,30.11,29.97,5,0,8,0.31
2013-8-30,61,50,44,53,48,44,99,93,65,30.10,29.98,2,0,3,0.56
2013-8-31,65,50,42,52,47,42,99,90,49,30.03,29.92,3,0,6,0.08
2013-9-1,65,51,44,52,46,43,98,86,46,29.98,29.89,4,0,8,0.16
2013-9-2,69,54,45,51,46,41,98,79,38,29.98,29.86,4,0,8,0.08
2013-9-3,70,53,42,52,45,38,99,79,33,30.02,29.89,4,0,10,0.07
2013-9-4,66,52,43,52,46,42,97,82,46,30.07,29.97,3,0,8,0.02
2013-9-5,72,56,46,49,43,31,93,67,23,30.05,29.94,2,0,8,0.00
2013-9-6,69,53,42,48,42,39,93,72,35,30.00,29.85,2,0,9,0.01
2013-9-7,73,52,41,49,42,35,93,73,27,29.98,29.84,2,0,8,0.05
2013-9-8,68,52,41,45,41,35,92,70,31,29.91,29.71,7,0,7,0.00
2013-9-9,68,50,39,48,43,38,97,81,38,29.78,29.64,8,0,11,0.22
2013-9-10,52,46,44,50,46,44,99,96,88,29.96,29.76,4,0,6,0.65
2013-9-11,56,47,44,52,46,44,99,96,84,30.00,29.91,2,0,6,0.60
2013-9-12,57,48,43,52,46,43,99,95,72,30.05,29.90,2,0,8,0.85
2013-9-13,56,47,40,48,45,40,99,93,71,29.92,29.71,2,0,6,0.32
2013-9-14,53,44,37,47,42,37,99,93,68,29.89,29.77,6,0,7,0.47
2013-9-15,54,42,38,46,41,37,100,95,72,30.11,29.88,4,0,9,0.39
2013-9-16,57,43,33,46,40,33,100,88,51,30.12,30.00,3,0,8,0.01
2013-9-17,61,45,34,44,36,30,99,75,32,30.06,29.80,7,1,10,0.00
2013-9-18,61,44,37,42,38,32,98,83,37,29.87,29.71,5,1,10,0.28
2013-9-19,54,40,30,40,31,19,99,74,27,30.09,29.85,7,1,13,0.05
2013-9-20,61,41,26,31,24,10,94,60,14,30.15,30.03,5,1,8,0.00
2013-9-21,61,44,32,35,31,26,86,63,30,30.06,29.78,8,1,13,0.00
2013-9-22,52,40,32,44,37,31,98,88,67,29.77,29.49,9,0,9,0.33
2013-9-23,39,32,28,32,29,26,98,88,62,30.23,29.50,10,1,15,0.06
2013-9-24,57,37,24,28,21,7,95,63,14,30.34,29.98,6,1,8,0.13
2013-9-25,60,46,31,27,22,15,77,44,17,29.98,29.49,8,2,17,0.00
2013-9-26,62,49,39,27,20,15,46,33,20,29.50,29.41,5,2,17,0.00
2013-9-27,45,36,24,40,27,16,94,70,45,29.89,29.42,6,1,11,0.07
2013-9-28,48,31,18,22,16,9,81,59,28,30.32,29.91,5,1,27,0.00
2013-9-29,54,38,26,20,16,9,75,46,17,30.31,30.01,10,1,12,0.00
2013-9-30,60,43,30,31,24,19,78,52,25,30.08,29.83,7,1,19,0.00
2013-10-1,63,43,30,29,24,13,78,54,15,29.99,29.84,4,1,10,0.00
2013-10-2,61,42,29,24,21,11,79,50,18,29.93,29.77,3,0,8,0.00
2013-10-3,57,43,31,24,20,14,75,44,19,29.79,29.49,8,1,14,0.00
2013-10-4,29,22,14,24,17,10,94,82,54,30.29,29.48,7,1,11,0.00
2013-10-5,32,20,14,20,14,11,91,78,53,30.63,30.29,6,1,15,0.00
2013-10-6,47,28,14,27,20,12,94,76,42,30.68,30.51,7,0,15,0.02
2013-10-7,59,38,24,25,17,4,87,54,11,30.50,30.05,5,1,8,0.00
2013-10-8,58,41,30,24,19,8,76,46,16,30.03,29.69,5,1,12,0.00
2013-10-9,51,38,28,27,23,18,79,57,28,29.85,29.75,10,1,14,0.00
2013-10-10,40,33,26,33,26,19,95,77,59,29.82,29.46,8,1,16,0.02
2013-10-11,37,30,25,26,23,19,88,75,59,30.10,29.60,15,1,23,0.01
2013-10-12,45,29,17,24,17,10,89,65,25,30.24,30.10,3,0,7,0.01
2013-10-13,48,36,27,31,24,17,95,62,32,30.20,29.83,8,1,11,0.00
2013-10-14,36,28,23,31,24,19,96,84,57,30.14,29.73,11,1,16,0.03
2013-10-15,29,24,21,25,21,19,95,91,82,30.22,30.13,3,0,6,0.00
2013-10-16,31,21,13,22,17,11,95,83,61,30.31,30.18,0,0,0,0.00
2013-10-17,36,22,10,18,12,8,94,70,37,30.35,30.16,5,0,14,0.00
2013-10-18,27,20,14,20,15,10,93,81,59,30.39,30.09,1,0,2,0.00
2013-10-19,38,26,13,20,15,10,91,66,43,30.45,30.20,0,0,0,0.00
2013-10-20,37,28,22,25,18,14,93,68,47,30.20,29.94,9,1,15,0.00
2013-10-21,37,25,13,20,17,11,94,75,38,30.42,30.10,4,0,12,0.00
2013-10-22,46,28,17,22,19,15,93,72,32,30.48,30.34,6,0,9,0.01
2013-10-23,49,31,21,22,18,12,89,66,23,30.36,30.24,6,1,9,0.02
2013-10-24,50,34,22,23,17,10,80,55,21,30.32,30.21,2,0,8,0.01
2013-10-25,47,33,24,26,21,18,83,64,31,30.29,30.16,4,0,10,0.00
2013-10-26,47,32,23,23,20,16,87,66,31,30.35,30.26,4,0,11,0.00
2013-10-27,43,30,21,22,18,11,87,64,27,30.29,29.98,8,1,14,0.00
2013-10-28,44,32,26,25,19,14,80,60,31,29.98,29.79,5,1,11,0.00
2013-10-29,40,32,27,26,16,9,94,55,32,29.86,29.68,6,1,15,0.00
2013-10-30,30,22,15,24,16,11,93,78,49,30.00,29.72,6,1,11,0.00
2013-10-31,27,20,17,19,15,13,92,81,64,30.19,29.99,9,1,20,0.00
2013-11-1,28,22,11,21,17,8,92,83,68,30.48,30.15,5,1,18,0.00
2013-11-2,46,26,9,19,8,-5,92,56,15,30.57,30.09,4,1,12,0.08
2013-11-3,41,31,15,23,14,5,91,51,27,30.08,29.54,7,1,14,0.01
2013-11-4,34,21,6,18,11,3,92,70,32,30.00,29.77,4,0,12,0.00
2013-11-5,22,12,3,18,7,-4,89,81,62,30.51,29.94,5,0,10,0.00
2013-11-6,26,16,-1,16,8,-5,89,72,57,30.76,30.52,8,1,17,0.00
2013-11-7,41,26,11,19,14,9,92,64,34,30.73,30.22,6,1,14,0.06
2013-11-8,41,33,23,18,14,6,73,46,31,30.21,29.84,17,2,19,0.03
2013-11-9,44,28,18,20,16,12,81,62,29,30.36,30.08,4,0,7,0.03
2013-11-10,44,28,19,18,16,13,80,62,29,30.42,30.31,4,0,15,0.01
2013-11-11,42,27,19,20,16,13,81,65,33,30.60,30.39,4,0,11,0.01
2013-11-12,45,27,19,17,13,3,84,62,18,30.71,30.59,2,0,6,0.00
2013-11-13,42,28,17,18,12,7,73,54,25,30.61,30.19,5,0,11,0.00
2013-11-14,36,27,19,23,13,1,93,61,23,30.18,29.89,4,0,10,0.00
2013-11-15,35,25,16,23,13,4,93,63,36,29.89,29.59,4,0,11,0.00
2013-11-16,30,23,18,21,15,10,92,73,47,29.63,29.46,10,1,25,0.00
2013-11-17,28,20,12,18,14,9,91,80,60,30.37,29.61,2,0,13,0.00
2013-11-18,39,19,8,19,11,4,93,76,23,30.57,30.37,3,0,6,0.00
2013-11-19,36,25,14,22,16,9,88,69,41,30.38,29.95,13,2,25,0.00
2013-11-20,36,27,23,22,20,15,92,75,45,29.95,29.84,4,0,11,0.00
2013-11-21,32,24,14,26,21,12,93,88,76,30.31,29.88,3,0,7,0.00
2013-11-22,30,20,13,23,16,11,94,86,75,30.57,30.32,3,0,8,0.00
2013-11-23,26,19,14,20,15,11,93,85,71,30.59,30.40,6,1,11,0.00
2013-11-24,26,22,16,23,20,14,95,92,85,30.39,30.06,1,0,6,0.00
2013-11-25,26,19,9,21,15,7,93,87,72,30.48,30.10,0,0,0,0.00
2013-11-26,27,17,8,15,12,6,94,83,57,30.62,30.49,0,0,0,0.00
2013-11-27,38,18,7,19,11,5,93,78,37,30.65,30.47,2,0,6,0.00
2013-11-28,38,23,15,19,13,10,88,70,32,30.47,30.29,3,0,8,0.00
2013-11-29,33,19,10,14,10,6,85,71,41,30.52,30.35,4,0,8,0.00
2013-11-30,32,16,7,11,6,3,88,70,31,30.58,30.47,4,0,10,0.00
2013-12-1,30,19,7,20,11,4,89,72,47,30.56,30.28,13,1,21,0.00
2013-12-2,32,26,22,21,18,15,90,74,53,30.28,29.75,11,1,27,0.00
2013-12-3,28,25,22,23,20,14,91,81,60,29.74,29.36,2,0,9,0.00
2013-12-4,68,7,-9,65,4,-12,92,86,81,30.08,28.94,3,0,6,0.00
2013-12-5,44,6,-15,36,0,-19,89,79,70,30.47,29.08,15,2,17,0.00
2013-12-6,5,-5,-16,-3,-10,-20,86,77,59,30.65,30.45,0,0,0,0.00
2013-12-7,15,6,-1,6,1,-5,88,78,62,30.59,29.91,0,0,0,0.00
2013-12-8,6,1,-11,3,-4,-15,88,80,60,30.28,29.85,0,0,0,0.00
2013-12-9,0,-8,-15,-9,-14,-19,87,75,53,30.98,30.27,0,0,0,0.00
2013-12-10,21,10,-4,9,3,-8,88,74,55,30.96,30.58,0,0,0,0.00
2013-12-11,26,9,-2,7,-1,-7,91,70,25,30.86,30.55,0,0,0,0.00
2013-12-12,36,15,4,11,3,-2,79,64,24,30.89,30.42,0,0,0,0.00
2013-12-13,27,14,6,10,6,1,88,72,41,30.42,30.12,5,0,13,0.00
2013-12-14,18,10,5,11,7,2,90,85,72,30.75,30.40,13,0,17,0.00
2013-12-15,32,22,14,15,12,9,85,67,40,30.73,30.54,9,1,20,0.00
2013-12-16,34,25,17,16,10,4,81,56,31,30.54,30.45,4,1,15,0.00
2013-12-17,38,25,18,14,9,3,75,53,32,30.54,30.36,5,1,14,0.00
2013-12-18,40,32,19,17,9,3,67,41,22,30.35,29.76,6,2,16,0.01
2013-12-19,35,28,14,22,12,8,79,53,36,29.75,29.52,6,1,19,0.00
2013-12-20,24,17,8,19,13,5,91,84,67,29.81,29.63,2,0,8,0.00
2013-12-21,16,7,0,12,4,-4,91,87,80,30.18,29.76,6,0,12,0.00
2013-12-22,15,9,2,7,3,-1,89,78,62,30.50,30.19,8,1,22,0.00
2013-12-23,25,18,12,17,10,4,81,71,59,30.64,30.47,13,2,23,0.00
2013-12-24,24,15,-3,21,12,-6,92,85,74,30.56,30.18,11,1,19,0.00
2013-12-25,19,4,-5,12,0,-9,90,84,69,30.97,30.56,4,0,10,0.00
2013-12-26,28,12,2,17,7,0,91,82,57,30.95,30.75,4,0,23,0.00
2013-12-27,34,17,7,20,12,4,92,83,54,30.81,30.49,5,0,7,0.00
2013-12-28,32,20,12,21,15,10,93,82,55,30.48,30.11,3,0,7,0.00
2013-12-29,17,11,2,14,7,-1,91,85,69,30.40,30.13,0,0,1,0.00
2013-12-30,23,16,9,11,8,4,84,71,50,30.56,30.39,3,0,15,0.00
2013-12-31,30,23,9,19,15,5,87,72,57,30.46,30.12,8,1,17,0.00
2014-1-1,23,16,8,19,12,4,92,85,74,30.49,30.01,6,0,10,0.00
2014-1-2,30,13,2,18,8,-1,91,80,55,30.71,30.48,0,0,0,0.00